Overview Statistics Trail Chart Weather Telemetry Raw packets
 

This is the latest recevied weather packets stored in our database for station/object CT1EDG-13. If no packets are shown the sender has not sent any weather packets the latest 10 day(s).

<< 101 102 103 104 105 106 107 >>
Time Temp. Humidity Pressure Rain* Wind** Luminosity Snow
1787838129 22.78° C 79% 1006.2 hPa 0 mm - - -
1787837530 22.78° C 83% 1006.1 hPa 0 mm - - -
1787837529 22.78° C 83% 1006.1 hPa 0 mm - - -
1787836930 22.22° C 84% 1006 hPa 0 mm - - -
1787836929 22.22° C 84% 1006 hPa 0 mm - - -
1787836330 22.78° C 82% 1005.9 hPa 0 mm - - -
1787836329 22.78° C 82% 1005.9 hPa 0 mm - - -
1787835730 22.78° C 84% 1005.9 hPa 0 mm - - -
1787835729 22.78° C 84% 1005.9 hPa 0 mm - - -
1787835132 20.56° C 93% 1005.8 hPa 0 mm - - -
1787835129 20.56° C 93% 1005.8 hPa 0 mm - - -
1787834531 22.78° C 84% 1005.7 hPa 0 mm - - -
1787834529 22.78° C 84% 1005.7 hPa 0 mm - - -
1787833930 22.22° C 85% 1005.6 hPa 0 mm - - -
1787833929 22.22° C 85% 1005.6 hPa 0 mm - - -
1787833330 21.67° C 87% 1005.5 hPa 0 mm - - -
1787833329 21.67° C 87% 1005.5 hPa 0 mm - - -
1787832730 21.67° C 83% 1005.4 hPa 0 mm - - -
1787832729 21.67° C 83% 1005.4 hPa 0 mm - - -
1787832130 21.11° C 85% 1005.4 hPa 0 mm - - -
1787832129 21.11° C 85% 1005.4 hPa 0 mm - - -
1787831529 21.67° C 90% 1005.2 hPa 0 mm - - -
1787831528 21.67° C 90% 1005.2 hPa 0 mm - - -
1787830929 21.67° C 89% 1005 hPa 0 mm - - -
1787830928 21.67° C 89% 1005 hPa 0 mm - - -

* Rain latest hour (hover to see other rain measurements)
** Current wind speed in m/s (hover to see current wind gust speed)